Theta_e
296 289 288 288 291 292 292 292 293 293 292 291 289 287 288 288 289 293 293 292 291 290 289 291 291 291 293 294 295 296 295 293 293 293 294 295 296 297 298 298 298 298 299 300 298 298 298 298 299 298 297 296 296 296 295 294 293 293 293 292 292 293 292 293 292 292 291 290 289 289 290 290 291 290 290 290 289 289 289 290 290 289 289 289 289 288
296 288 288 292 294 294 292 293 293 292 292 290 289 288 288 287 288 293 294 292 290 291 288 290 290 291 292 294 295 294 291 293 295 294 293 294 295 296 297 297 298 298 297 296 295 295 295 296 296 295 295 295 294 294 294 294 293 293 292 292 292 292 292 293 293 292 292 291 291 291 290 290 290 289 289 289 289 289 290 290 289 289 289 289 288 288
290 288 291 293 295 293 292 291 291 291 290 290 288 288 286 287 290 293 293 293 290 289 289 289 287 289 291 293 294 293 293 295 296 296 297 296 296 297 297 297 298 297 296 294 294 294 295 295 295 294 294 294 296 294 294 294 292 292 292 292 292 292 292 292 293 292 291 291 290 290 289 290 289 289 289 289 289 289 289 289 289 289 288 288 288 288
286 289 294 295 295 294 294 293 291 290 290 289 288 286 286 290 287 287 288 288 289 289 283 283 285 288 290 292 293 294 294 295 297 297 297 297 296 296 297 298 298 296 294 295 294 294 293 294 294 292 291 293 292 292 291 291 292 292 292 292 292 292 292 292 292 292 291 291 289 288 289 289 288 287 288 288 288 288 288 288 288 288 288 288 287 287
289 290 295 295 295 294 293 293 290 287 288 290 290 289 288 288 290 289 289 287 287 288 288 286 286 288 289 290 293 295 295 295 296 296 296 297 297 298 299 298 298 298 296 294 292 291 292 292 292 292 292 290 291 291 292 291 292 293 292 292 292 292 292 292 292 291 290 290 288 288 288 288 287 287 286 286 285 287 288 287 287 288 288 288 287 287
290 293 293 293 293 293 292 290 289 288 287 289 290 290 291 291 289 290 289 288 285 284 286 287 283 285 288 290 292 293 289 290 293 293 294 295 296 296 296 297 297 296 296 296 295 293 293 293 292 289 288 289 289 290 291 292 292 292 292 292 292 292 291 291 291 291 290 290 289 287 286 286 286 285 285 285 286 286 287 287 288 287 287 287 287 286
291 293 295 293 291 290 290 289 288 291 289 288 286 290 292 290 289 286 286 287 281 280 286 287 280 282 284 286 288 288 289 291 291 292 294 294 295 295 296 297 296 294 295 294 293 292 292 291 291 290 288 289 289 290 290 289 290 291 292 291 291 291 291 291 291 290 290 289 289 288 288 287 287 286 286 287 287 287 287 287 287 287 287 287 287 286
292 290 291 293 292 290 288 287 291 291 289 287 287 288 288 288 287 287 287 287 285 283 285 287 282 281 284 286 289 290 290 290 291 292 293 294 295 295 296 297 296 294 295 296 294 293 293 292 292 291 290 288 290 289 287 289 289 289 290 290 291 291 291 290 291 290 290 289 289 288 288 288 287 287 287 287 287 287 287 286 287 286 286 286 286 286
290 289 288 290 288 288 288 292 291 293 291 288 286 288 289 289 287 287 286 283 281 281 281 282 284 281 283 285 291 291 288 289 290 292 293 295 296 296 296 297 297 295 296 296 294 293 292 292 292 291 289 288 287 287 287 288 289 289 289 289 289 289 289 290 290 290 290 290 289 288 288 287 287 287 287 286 287 286 286 286 286 286 285 285 285 285
292 291 290 291 289 287 290 285 290 293 289 289 289 287 287 286 285 286 284 284 279 277 280 281 284 281 283 288 285 286 287 288 289 292 293 295 296 296 296 296 297 295 294 295 296 294 293 293 292 290 288 286 287 286 288 287 287 287 287 288 288 287 288 289 289 289 289 289 289 288 287 287 286 286 285 285 285 285 285 285 285 285 285 285 284 284
291 291 294 292 289 291 285 286 286 287 291 289 289 288 282 281 281 279 280 279 280 277 281 283 284 285 281 284 286 285 285 289 291 290 292 294 294 296 295 295 296 296 295 293 294 293 293 290 289 286 287 286 284 285 285 285 286 286 286 287 287 287 287 287 288 288 288 288 288 288 287 287 286 285 285 284 284 285 285 284 284 284 284 284 284 284
290 291 290 288 291 288 287 287 286 287 288 289 285 282 283 283 278 279 276 279 275 278 280 284 284 285 279 280 284 289 288 291 292 291 293 293 294 296 295 294 295 295 295 293 291 289 289 286 285 285 285 285 284 284 285 285 285 286 286 286 287 286 286 286 287 287 288 288 287 287 287 286 286 285 285 285 284 284 284 284 284 284 284 283 283 283
286 288 289 292 292 293 287 288 283 281 284 286 282 284 280 275 276 272 273 272 271 278 278 281 284 280 282 287 284 287 287 288 290 293 293 293 293 294 294 294 294 292 291 292 290 288 287 288 286 285 285 284 284 285 285 285 285 285 286 286 286 286 286 286 286 287 287 287 287 287 286 286 287 286 286 285 285 285 284 284 283 283 283 282 282 282
284 285 288 289 290 292 291 286 282 282 283 284 284 281 277 273 271 269 269 270 273 278 279 281 283 283 286 284 291 292 293 291 292 292 293 293 293 293 293 293 292 290 291 291 290 289 288 288 287 286 286 285 285 285 285 285 286 286 286 286 286 287 286 286 286 286 286 287 287 286 286 286 286 285 285 285 285 285 285 285 284 283 283 282 282 282
280 285 286 288 286 290 293 292 290 289 282 286 284 286 283 279 270 268 273 276 278 280 277 281 279 276 276 282 288 294 296 294 292 293 293 292 292 292 289 291 290 288 287 287 289 288 288 288 287 286 286 285 285 285 285 285 286 285 286 286 286 286 285 285 286 286 286 286 286 286 286 286 286 286 285 285 285 284 284 284 283 283 283 282 282 282
286 286 287 294 288 290 290 293 292 284 284 282 283 286 280 280 281 281 283 278 277 275 277 275 280 277 283 287 288 289 290 291 291 292 291 291 291 290 290 292 290 288 287 286 287 287 286 286 285 285 285 285 284 284 285 285 285 285 286 286 286 287 286 285 286 286 286 286 286 285 285 285 285 286 285 284 284 284 284 283 283 282 282 282 282 281
284 282 287 290 288 289 287 289 291 291 280 282 285 280 285 285 286 281 281 280 277 276 279 278 280 284 286 290 291 293 291 291 290 290 288 290 292 291 291 291 288 288 286 286 287 288 287 284 284 285 285 284 284 284 284 285 286 286 286 286 286 286 286 285 286 286 286 286 285 285 285 285 284 285 284 284 284 283 283 283 282 282 281 281 281 281
286 287 289 288 287 288 284 287 288 287 287 283 279 283 287 286 283 281 274 273 274 274 279 282 280 282 280 280 283 286 288 287 288 289 291 291 291 291 292 288 289 288 288 286 286 286 287 287 286 285 285 285 285 285 285 285 285 286 286 286 286 285 285 286 286 286 286 285 285 285 284 284 285 285 285 284 283 283 282 281 281 281 280 280 280 281
291 284 289 288 287 288 288 289 288 288 288 283 281 286 285 278 277 280 277 277 276 276 278 281 282 281 283 284 286 286 285 287 289 291 291 291 292 292 290 286 286 285 285 285 286 286 286 287 287 286 286 286 285 284 284 284 284 284 285 285 285 285 286 286 286 285 286 285 286 285 285 284 284 284 284 284 283 282 282 281 281 280 280 280 280 280
290 285 286 286 288 287 285 285 282 284 287 286 287 283 283 281 277 276 282 277 279 278 278 279 282 280 287 284 287 285 287 288 289 288 289 291 292 293 291 288 288 286 287 286 286 286 287 287 287 287 287 286 285 285 284 283 283 284 284 284 285 285 284 284 285 285 285 285 285 285 284 283 284 284 284 283 282 282 282 281 280 280 279 279 279 279
287 291 283 286 285 287 283 284 282 285 284 284 284 281 282 280 281 281 281 279 279 276 277 276 276 282 288 285 286 286 285 287 288 289 290 291 291 291 290 290 287 286 287 287 286 286 286 287 287 287 287 287 284 283 283 283 283 284 284 284 284 284 284 284 285 285 285 285 284 284 283 283 283 283 283 282 282 282 281 281 280 280 279 279 278 278
287 285 285 283 282 282 286 287 287 288 289 286 287 285 286 282 279 278 278 283 278 279 276 276 277 283 290 289 290 289 286 287 288 290 290 290 291 288 286 284 285 286 286 287 287 287 287 286 286 286 285 283 283 283 283 283 283 282 283 284 284 284 284 284 284 284 285 284 284 283 283 282 282 282 282 281 281 281 280 280 280 279 278 278 278 278
290 285 285 283 286 287 288 289 289 291 290 288 288 285 287 284 284 281 278 280 281 280 283 283 280 282 294 293 291 290 288 286 288 288 289 290 289 287 287 286 285 285 286 287 288 288 287 287 287 287 286 285 285 285 284 283 283 283 283 284 284 284 284 284 285 284 284 283 283 283 283 282 281 281 281 280 280 280 280 279 278 278 278 278 277 277
293 287 282 285 287 286 288 289 288 288 287 285 286 286 285 282 284 283 283 284 283 283 282 281 279 283 293 295 294 293 288 286 288 288 289 289 287 285 284 284 285 285 287 287 286 285 287 287 285 284 284 284 284 284 284 284 284 284 283 283 284 283 284 284 284 284 283 283 283 283 282 281 281 280 280 280 280 279 279 278 278 278 278 277 276 276
286 284 283 279 280 282 284 287 286 286 287 284 283 286 288 288 287 286 286 285 282 282 283 280 275 282 291 295 293 293 293 288 288 287 287 290 285 283 284 285 286 287 287 286 286 287 286 285 285 286 286 285 285 285 284 284 284 283 283 283 283 284 284 284 283 283 283 283 282 282 281 281 280 280 279 279 279 278 277 277 277 277 277 276 276 275
288 285 283 278 276 275 275 276 278 281 282 282 285 287 288 288 287 285 281 283 279 283 284 281 280 286 292 293 293 293 293 292 290 290 288 286 286 287 286 286 286 285 286 287 287 286 287 288 287 287 286 286 285 285 284 284 284 283 283 283 283 283 283 283 283 283 282 282 282 281 281 280 279 279 279 278 278 277 277 276 276 276 276 276 275 274
285 286 286 284 282 280 283 284 287 284 282 281 283 285 287 288 288 287 286 283 280 283 282 284 285 285 287 289 291 292 293 293 293 295 293 291 289 288 288 287 287 288 288 288 288 288 286 286 288 288 288 287 286 285 285 284 284 283 283 282 282 283 283 283 282 282 282 281 281 281 280 280 279 279 278 278 277 276 276 276 276 275 275 275 274 274
285 284 286 286 285 286 287 288 290 290 286 287 286 285 286 285 286 285 283 281 287 283 279 286 287 285 286 290 291 292 293 294 295 294 294 293 292 291 290 288 289 287 287 285 285 286 288 290 291 289 288 287 287 286 284 284 283 283 283 282 282 282 282 282 282 281 281 281 281 281 280 280 279 279 278 278 276 276 275 275 275 275 274 274 273 273
285 284 286 286 285 287 288 289 289 289 288 288 288 287 286 287 286 283 283 286 286 282 280 286 287 285 287 290 292 293 294 294 295 295 295 294 291 289 287 286 287 289 289 285 286 288 289 290 291 291 289 288 286 285 284 283 282 282 282 282 281 281 282 282 281 281 281 281 281 281 280 280 279 278 278 277 276 275 275 274 274 274 273 273 273 273
287 284 287 287 285 286 287 287 288 287 287 287 287 287 288 287 286 287 286 287 286 284 286 287 287 287 290 291 292 294 295 295 296 296 294 292 291 292 289 287 289 291 291 287 287 288 289 290 291 291 290 288 286 285 284 283 282 282 282 282 281 281 281 281 281 281 281 281 281 281 280 279 278 277 277 276 275 275 274 274 273 273 272 272 272 272
288 283 290 286 284 284 286 287 287 287 286 285 286 287 287 287 287 287 287 287 287 286 287 286 285 285 291 294 293 295 296 296 295 293 293 293 294 293 291 290 291 291 291 289 287 289 290 291 291 290 289 288 287 286 285 285 284 283 282 282 281 281 281 281 281 281 281 280 280 280 279 278 277 276 276 276 275 274 274 273 273 272 272 271 271 270
287 284 289 286 282 281 285 285 285 286 285 285 285 286 286 285 284 285 285 287 286 284 286 285 283 284 290 293 294 294 294 293 292 293 293 294 294 293 291 291 292 292 291 289 289 288 289 290 290 289 289 289 289 287 286 285 285 283 282 282 282 281 281 281 281 280 280 280 279 279 278 277 276 276 275 275 274 274 273 273 272 272 271 270 269 269
285 285 284 284 281 280 286 286 285 285 283 280 281 285 287 287 288 288 289 289 289 289 285 283 284 290 292 293 291 292 292 292 292 292 293 293 293 292 292 292 292 292 292 291 291 290 289 289 289 290 291 291 290 290 288 287 286 284 284 283 283 281 280 280 280 280 280 279 278 278 277 277 276 275 275 274 274 273 273 272 271 270 269 269 269 268
286 285 285 286 281 281 286 285 285 281 274 276 287 291 290 287 287 285 286 288 289 290 287 290 290 293 293 292 291 291 292 292 293 294 294 293 292 292 292 292 293 293 293 292 292 292 293 291 290 290 291 291 292 291 291 289 288 287 286 284 281 281 280 280 280 279 279 278 278 277 277 276 276 275 275 274 273 273 272 271 271 270 269 268 268 268
286 285 284 286 281 279 284 283 279 273 276 287 290 292 292 291 290 288 289 290 290 291 291 290 290 291 292 293 293 293 293 293 293 292 292 290 288 288 291 293 294 294 294 294 293 292 291 290 289 290 290 290 291 290 289 288 287 286 282 281 281 281 280 280 280 279 279 278 278 277 277 276 276 275 274 273 273 272 271 271 270 269 269 268 268 268
286 285 284 283 283 283 280 279 273 274 285 283 288 290 292 291 290 289 286 289 290 290 290 289 290 292 292 293 293 293 293 293 293 292 292 292 292 292 291 291 292 292 292 293 293 294 292 290 290 290 291 292 291 289 288 289 288 285 284 282 281 280 280 280 279 279 279 278 278 277 277 276 275 275 273 272 271 271 271 270 270 269 268 268 267 267
288 287 286 282 286 279 279 280 279 285 285 283 285 284 288 285 285 285 281 285 291 290 290 289 290 292 292 292 292 292 292 292 291 292 291 289 290 290 290 290 290 290 290 291 291 291 292 291 290 290 290 290 290 289 289 288 285 284 282 280 281 280 280 279 279 279 278 278 278 277 277 276 275 274 272 272 271 270 270 270 269 268 268 267 267 267
289 285 286 283 280 286 279 277 278 278 275 281 289 289 293 292 292 291 287 284 286 282 287 284 284 284 284 285 286 287 289 287 286 287 288 289 289 289 289 289 289 289 289 289 290 290 290 289 289 289 287 288 289 289 288 284 284 282 281 280 279 279 279 279 279 279 278 278 278 277 276 276 275 274 272 271 271 271 271 270 269 268 268 267 266 267
287 288 286 283 281 283 281 277 276 275 278 285 286 290 291 293 292 291 285 281 283 282 286 286 284 284 283 283 283 286 285 283 282 284 288 288 288 288 287 288 288 288 288 288 288 288 287 288 287 287 285 284 285 284 281 282 282 281 280 279 279 279 278 278 279 279 279 279 278 277 276 275 274 274 272 271 271 271 270 269 268 268 268 268 268 267
283 284 284 281 279 280 279 278 276 280 278 278 279 283 285 288 290 283 275 275 279 282 287 285 284 283 283 283 283 282 281 278 280 284 287 287 287 287 286 286 287 287 288 289 289 288 287 287 286 286 284 283 283 279 279 279 280 280 280 278 277 277 278 278 279 280 279 278 277 276 275 275 274 274 272 271 271 270 269 269 267 267 267 267 267 267
278 278 282 278 280 280 281 278 281 282 284 280 281 284 285 286 285 278 272 273 280 283 286 285 283 284 282 283 282 279 281 284 285 286 287 286 285 285 285 286 286 286 286 287 288 288 287 287 285 284 283 283 280 279 279 279 279 280 279 277 277 277 279 279 278 278 278 277 276 275 275 275 274 273 272 271 270 269 268 268 267 267 266 266 266 266
274 276 277 281 278 277 279 277 278 282 281 282 283 285 284 283 277 272 276 281 282 281 285 285 282 283 282 283 282 282 283 284 285 285 285 285 284 284 284 284 285 285 286 287 287 287 287 286 286 285 283 279 279 279 280 280 280 279 278 277 277 279 278 277 277 276 276 275 275 274 274 273 273 272 271 270 269 268 267 267 267 267 266 266 266 265
272 273 271 273 274 275 276 276 276 273 279 284 282 280 283 273 273 280 281 282 282 284 282 282 282 281 282 281 282 282 283 283 283 284 284 284 284 284 284 284 284 284 285 286 287 288 287 286 287 287 286 281 279 280 280 281 281 280 278 278 279 277 275 274 275 275 274 273 273 272 272 272 271 270 270 269 268 267 266 266 265 266 266 265 265 265
276 270 271 274 279 272 271 270 272 277 279 285 281 275 279 280 282 283 282 281 284 282 281 281 281 281 282 281 281 281 282 282 282 283 283 284 284 284 285 285 285 285 286 286 287 287 287 287 287 287 286 280 278 280 282 281 282 281 279 280 277 276 274 274 274 273 272 271 271 271 271 270 270 269 269 268 268 267 266 265 265 265 265 265 265 264
281 274 277 273 278 274 270 274 278 281 281 284 284 280 281 282 282 283 284 284 282 281 283 280 280 282 282 281 281 281 281 282 282 283 283 283 284 285 285 285 286 286 286 286 287 287 286 287 286 287 285 282 278 278 280 281 282 281 280 281 277 276 275 274 273 272 271 271 270 270 270 269 269 268 268 267 267 266 266 265 264 264 264 264 264 264
279 279 280 276 274 279 279 280 281 280 280 280 282 282 281 281 284 285 284 282 282 282 281 280 281 281 281 282 281 281 282 282 282 283 283 283 283 284 285 285 286 286 286 286 286 287 287 287 286 285 285 286 280 277 279 280 282 282 283 280 277 277 276 274 273 272 272 271 270 270 269 268 268 267 267 267 267 267 266 265 265 264 264 264 264 264
275 277 276 273 275 273 267 278 276 277 279 279 279 281 281 283 284 284 283 283 280 280 280 281 281 281 281 281 281 281 281 282 281 281 281 281 281 282 283 283 284 284 285 285 286 286 286 286 286 285 285 285 285 280 279 280 281 283 284 279 278 276 275 273 273 272 271 270 270 269 268 268 267 266 266 266 266 266 266 265 265 265 264 264 264 264
270 278 272 272 272 271 270 276 277 278 278 279 279 277 278 280 278 279 279 279 280 280 280 279 280 279 280 279 280 280 280 280 279 279 280 280 280 281 281 282 282 283 284 285 285 286 285 286 285 285 285 285 286 284 281 280 281 281 282 279 277 276 274 273 273 272 271 270 269 268 267 267 266 266 266 266 266 265 265 265 266 265 264 264 264 264
274 274 268 271 270 272 275 275 276 277 277 277 277 278 278 279 279 278 278 277 277 277 277 278 279 278 279 278 279 278 277 278 279 279 279 279 279 280 280 281 282 282 283 283 284 285 285 285 285 285 285 286 287 286 283 281 281 281 281 279 276 274 273 273 272 272 271 269 268 267 267 267 266 266 266 266 265 265 265 265 265 265 265 267 267 267
273 269 273 272 268 268 268 271 274 269 269 274 276 277 277 279 276 275 275 275 276 275 276 276 276 278 278 277 277 277 276 276 277 277 277 277 277 278 279 279 280 281 281 283 283 284 284 284 285 285 285 285 286 286 285 284 282 281 280 278 275 274 273 272 271 270 269 268 267 267 266 266 265 266 265 265 265 264 264 267 269 268 266 266 270 271
272 273 273 270 269 268 273 274 274 274 274 275 276 275 276 276 274 273 273 274 274 275 275 274 273 273 274 275 276 275 275 274 274 274 274 275 276 277 277 277 277 277 278 279 280 280 281 282 283 284 284 285 285 285 285 284 283 280 278 276 274 273 273 272 270 270 268 267 267 266 266 265 265 265 265 265 264 264 263 265 268 271 271 271 271 272
Wind_Speed
5 8 8 9 14 15 8 10 15 13 8 10 7 7 11 11 11 12 12 6 5 3 10 15 16 16 18 18 17 15 10 9 11 11 12 12 13 14 16 16 15 15 19 11 5 10 13 13 12 11 10 10 10 11 13 14 14 15 16 15 16 13 13 13 12 11 12 12 8 7 10 11 9 9 8 7 7 8 7 9 9 8 8 8 8 7
5 7 9 14 18 12 7 11 11 11 9 11 10 9 13 6 14 14 11 2 4 6 6 11 15 16 18 19 16 9 6 13 15 14 13 15 14 14 18 18 17 18 10 7 5 5 6 8 9 9 9 10 13 11 13 16 16 15 15 17 15 12 13 14 15 13 12 12 13 13 12 10 9 9 9 9 8 8 7 9 9 8 8 8 8 7
7 11 12 18 11 5 6 6 7 10 9 9 10 11 9 9 12 13 9 8 5 5 13 9 12 15 17 17 15 11 12 12 13 14 17 14 15 14 17 17 18 14 13 6 5 4 8 8 9 10 10 12 16 15 17 15 14 14 15 14 14 14 14 13 13 12 12 8 6 7 7 9 6 3 3 5 5 7 8 8 8 8 8 9 8 8
8 8 16 10 7 10 11 8 7 7 8 9 10 9 13 9 6 14 4 0 3 8 4 4 10 10 11 13 16 15 12 14 16 16 17 15 14 16 20 18 16 12 9 10 8 9 8 9 10 8 9 11 9 11 10 12 16 13 13 13 14 14 13 12 12 11 8 8 5 4 6 5 4 5 5 5 5 6 7 8 8 7 8 9 9 9
17 5 10 12 11 12 15 12 6 7 12 11 13 12 10 10 13 12 10 2 2 5 4 8 11 13 11 17 16 15 15 14 15 14 16 16 13 16 18 13 15 17 12 9 7 5 6 9 12 14 12 9 12 13 14 14 15 12 16 15 15 14 14 12 12 12 9 9 7 7 6 5 6 5 5 6 6 7 7 7 8 10 9 9 8 8
16 8 3 6 9 11 11 10 7 7 12 15 12 11 17 14 13 12 9 7 5 6 3 2 9 13 10 19 20 10 3 7 11 13 16 17 15 13 19 17 15 10 8 12 12 13 13 13 9 6 8 11 10 12 13 14 14 13 13 14 13 11 12 13 13 13 12 12 12 11 11 11 8 9 10 13 15 12 13 14 8 7 8 8 8 8
7 6 9 9 8 10 8 9 6 11 14 14 6 13 14 11 9 6 7 3 7 7 3 2 5 18 5 6 7 6 8 12 7 9 15 14 13 13 16 15 12 8 7 7 5 5 8 8 9 9 11 12 12 12 10 10 11 12 14 14 15 13 12 11 13 14 12 12 12 16 16 14 15 14 12 9 8 10 8 7 10 9 8 8 9 7
4 4 9 10 11 11 8 7 9 15 10 11 1 7 6 6 6 7 4 7 9 1 4 1 2 8 22 7 7 11 12 11 11 11 11 12 13 14 14 14 13 8 8 9 10 10 12 13 15 17 15 12 15 11 9 11 10 14 14 14 15 12 12 12 12 14 14 14 13 13 13 12 13 14 13 12 11 8 7 8 9 8 8 7 8 8
4 1 6 9 7 7 9 17 4 10 8 4 1 5 3 5 4 1 1 3 2 5 11 7 3 4 15 5 13 14 11 10 12 12 13 15 15 15 15 15 15 10 9 10 10 12 13 14 14 11 11 10 8 10 12 13 13 11 11 12 11 12 12 12 15 15 15 14 14 14 12 12 10 9 7 6 7 8 8 9 7 8 8 8 7 8
2 2 5 7 7 10 8 1 7 12 8 4 3 4 4 3 3 1 1 1 3 2 17 6 7 7 22 12 6 2 7 11 11 15 16 16 17 16 14 14 15 10 6 8 11 12 13 13 12 9 6 7 9 8 8 8 8 9 9 11 13 12 12 12 15 15 15 14 13 14 14 15 11 8 6 8 9 9 9 11 10 9 9 8 7 7
3 2 3 4 8 4 3 1 1 1 2 3 3 2 5 5 2 2 3 2 3 8 12 12 10 9 16 5 11 10 8 11 11 6 8 9 9 13 9 10 12 12 7 7 8 8 9 7 6 7 10 10 6 6 7 8 9 8 10 11 13 14 11 12 15 15 16 15 14 15 15 15 14 12 11 11 10 9 10 11 10 10 9 8 8 7
5 0 2 4 4 4 3 2 4 1 1 1 1 2 4 7 4 2 3 2 3 14 3 15 15 15 12 3 3 7 2 11 13 11 12 12 12 14 11 10 12 9 6 6 6 7 6 5 5 6 8 9 9 7 8 8 9 10 10 11 13 11 13 12 14 14 15 15 15 14 15 16 15 15 13 15 15 14 14 12 12 9 8 8 7 7
8 13 6 2 3 11 3 2 3 3 2 3 4 5 2 6 5 3 2 1 6 13 3 7 10 1 23 10 2 5 7 4 6 9 11 12 12 11 11 12 9 6 5 6 6 6 7 9 10 10 9 8 11 13 11 12 10 10 11 13 15 15 14 14 14 16 16 15 15 16 16 16 15 16 16 15 14 14 14 13 12 12 11 9 9 9
9 3 6 5 2 6 8 8 2 2 7 7 8 6 5 5 4 4 5 4 5 7 4 7 4 13 10 3 11 11 12 10 10 10 10 10 13 11 12 10 6 6 7 7 7 8 9 10 10 10 11 12 11 11 13 13 13 12 12 13 15 16 13 12 13 15 15 17 16 15 15 15 14 15 15 14 14 14 12 12 14 14 14 13 14 13
5 11 8 8 5 6 14 14 18 11 8 13 4 12 12 9 5 2 6 10 9 10 2 1 6 8 4 5 8 17 17 13 9 12 12 11 9 10 5 1 1 3 4 5 7 9 10 10 10 11 11 11 12 12 12 12 12 11 12 14 16 14 14 15 16 14 17 16 15 14 14 13 13 14 13 13 12 13 13 12 13 12 11 11 11 11
11 14 6 15 1 9 13 13 6 5 1 3 3 1 1 7 6 9 8 5 4 5 8 3 8 4 6 1 2 4 5 6 7 11 8 9 9 9 5 6 6 6 5 5 6 7 7 7 8 7 8 10 10 12 12 12 12 13 16 17 18 19 17 16 16 16 17 16 14 13 14 15 14 11 11 10 10 11 13 13 13 12 12 10 10 8
1 7 2 3 6 7 6 2 5 8 5 3 8 8 13 2 6 5 5 3 1 1 17 2 7 9 7 13 9 17 12 11 5 6 5 9 10 10 11 8 6 6 6 6 8 8 8 6 6 9 9 9 9 10 15 17 17 19 17 15 17 17 13 15 17 18 15 15 14 15 15 13 13 14 16 16 16 14 11 11 11 11 11 9 9 9
7 8 1 6 4 2 2 1 0 2 4 7 3 8 1 2 4 4 5 3 2 7 12 6 12 13 5 15 3 6 1 4 5 8 9 12 13 12 14 6 8 10 10 7 5 6 7 8 10 10 9 10 13 16 15 16 15 14 15 16 17 15 16 18 17 16 15 15 15 14 15 15 16 15 13 11 13 12 12 11 10 9 10 11 10 10
5 12 9 4 3 3 1 1 4 0 1 5 4 1 6 4 3 3 3 5 7 9 7 11 12 10 11 16 5 8 5 7 11 13 12 12 12 14 11 5 7 4 3 6 9 8 8 9 10 11 13 12 12 10 10 9 9 10 11 13 14 18 19 16 11 10 11 12 13 13 15 15 14 12 11 9 10 11 14 14 13 13 12 10 11 11
1 8 4 1 5 1 1 4 8 5 1 1 2 2 1 1 3 5 8 4 4 15 8 14 12 15 10 4 5 7 10 7 10 6 8 12 13 13 10 8 9 8 8 8 9 10 11 12 12 13 14 14 16 16 14 11 9 12 14 12 14 13 9 11 15 15 15 14 12 11 10 10 11 10 10 10 11 13 14 14 14 13 13 13 11 11
9 8 14 1 4 1 3 5 8 11 10 4 3 4 2 1 3 3 3 4 7 9 9 9 12 13 14 5 2 3 5 6 9 10 10 12 12 11 11 11 7 8 9 9 8 9 10 11 11 11 11 11 7 4 6 11 16 15 10 12 14 15 15 15 15 14 15 13 14 13 13 13 11 12 10 10 11 12 11 11 13 13 12 11 12 12
1 2 13 2 1 5 8 2 10 9 11 9 11 11 12 8 4 6 11 2 3 7 6 7 15 8 16 6 1 0 3 4 8 9 10 10 11 11 7 7 8 7 8 8 8 9 9 10 10 9 6 5 5 8 11 13 10 10 15 17 15 13 12 15 15 16 16 13 11 12 12 12 10 10 9 11 11 12 11 11 12 12 12 14 12 13
2 1 4 7 8 11 7 8 7 12 8 7 9 7 6 3 3 6 14 7 3 4 4 9 10 13 16 11 4 3 2 4 6 6 8 9 10 9 9 8 7 7 7 7 9 9 9 9 11 11 10 11 14 14 13 10 12 15 17 15 13 16 18 17 17 13 11 12 13 15 13 11 10 10 10 11 11 12 11 11 10 11 14 13 12 10
3 3 3 8 5 5 5 1 1 2 2 2 1 2 2 6 7 8 7 6 10 6 8 7 13 7 12 19 9 14 5 5 5 7 10 9 7 5 6 5 6 6 8 9 7 5 7 7 4 3 6 11 11 11 14 15 15 14 12 14 15 17 19 16 13 13 13 12 14 14 13 13 12 12 12 12 11 11 9 9 10 10 11 12 12 13
4 3 5 3 4 5 8 9 3 1 1 3 3 5 7 6 7 8 5 2 10 9 13 12 17 8 13 19 12 16 18 6 7 7 6 8 5 5 6 6 7 9 8 7 7 9 6 4 7 10 12 13 13 12 12 13 14 14 15 13 14 17 17 14 11 12 14 14 14 12 14 14 13 14 14 13 10 10 9 9 10 10 11 11 12 12
4 2 1 2 5 10 10 9 10 11 7 2 2 7 11 15 17 10 10 9 15 12 18 14 14 13 20 21 23 22 22 20 14 11 9 8 7 7 8 9 9 7 8 9 8 6 7 9 9 9 9 9 11 12 12 12 13 13 13 14 15 15 12 14 13 14 13 13 14 13 14 13 12 14 15 13 12 12 11 10 10 11 9 12 13 11
3 6 10 11 11 11 12 11 7 4 1 4 6 11 15 16 18 16 12 13 15 13 16 17 18 20 19 17 23 27 24 23 24 21 16 12 10 13 10 7 7 9 11 10 9 8 7 7 13 13 12 12 11 11 11 13 14 13 13 14 13 13 13 13 13 14 14 13 14 13 14 14 15 14 14 14 12 11 11 11 10 10 11 10 11 12
5 6 14 19 22 20 21 21 21 18 18 17 16 16 13 11 11 14 14 18 15 13 19 14 21 20 20 19 23 27 29 29 26 20 17 12 13 14 10 9 10 9 9 6 4 7 11 15 14 11 12 12 13 12 11 10 12 14 14 16 14 12 12 11 13 14 14 14 14 14 15 15 13 13 14 12 11 12 12 11 11 11 9 10 11 11
7 12 14 16 23 23 26 26 26 24 21 20 20 19 21 19 15 16 18 19 17 17 22 16 17 20 20 20 23 26 27 29 27 22 18 15 10 7 6 7 9 12 12 5 9 12 13 13 13 13 13 13 12 11 12 11 11 10 10 10 10 11 14 13 13 13 14 14 15 16 15 12 11 11 12 13 13 13 13 13 12 10 10 10 9 8
4 11 10 17 22 20 22 25 25 27 24 23 22 22 22 22 23 22 23 22 22 22 21 20 21 25 19 17 19 24 26 24 21 20 19 16 17 16 9 8 11 15 14 8 11 12 13 14 14 14 13 12 12 13 12 12 12 13 14 14 13 13 12 11 14 14 14 16 16 13 12 12 12 12 13 13 15 15 14 13 13 12 11 11 10 10
12 7 15 17 15 18 19 21 21 24 23 26 24 24 23 24 24 25 24 21 20 22 23 27 27 26 19 21 24 25 24 20 19 22 26 26 25 22 14 10 13 15 14 10 10 13 13 13 14 13 10 12 13 14 15 15 15 13 13 11 11 13 12 13 13 14 14 15 13 12 12 12 13 13 15 15 13 12 13 14 12 12 11 11 10 11
10 10 7 8 11 13 12 20 23 24 25 27 26 24 24 25 25 23 21 20 20 23 25 24 20 19 20 26 26 27 27 25 24 26 26 25 27 21 11 13 16 17 14 13 13 12 11 12 13 11 12 14 15 15 13 13 13 11 13 12 13 12 11 12 13 14 14 13 12 13 14 14 14 14 14 13 14 14 13 13 13 13 12 11 11 9
7 4 7 8 15 16 13 19 21 23 22 22 22 23 32 31 27 23 22 21 22 22 22 18 21 20 24 21 22 21 22 26 26 24 25 27 23 17 16 16 17 16 14 14 15 13 11 13 13 13 14 14 14 14 15 16 12 13 14 13 14 9 12 14 14 13 13 12 13 14 14 13 14 14 13 14 14 13 13 14 13 13 12 13 10 9
5 11 12 8 15 13 13 20 14 15 20 18 14 28 26 27 25 27 25 26 28 22 20 21 24 21 22 18 20 21 23 23 22 21 17 14 14 16 14 12 15 17 15 14 12 13 14 11 9 11 14 15 16 16 15 13 14 15 14 11 8 12 13 13 12 13 13 12 13 14 14 13 14 15 14 13 13 14 14 15 15 13 11 10 10 11
11 10 13 7 8 7 5 6 10 19 17 3 9 13 21 27 27 28 29 28 27 26 27 27 27 24 23 21 20 20 19 18 16 15 11 8 5 6 12 18 20 19 20 16 14 15 13 11 11 12 12 12 16 14 10 9 10 11 5 9 12 12 13 13 13 12 13 14 14 13 13 15 15 15 14 14 15 15 15 15 13 13 12 12 13 13
12 11 7 6 5 6 5 6 15 14 3 3 2 11 15 19 21 22 25 24 25 25 25 27 24 23 21 21 19 17 17 17 15 11 11 9 9 11 13 14 17 19 20 18 17 17 13 11 13 14 15 15 11 10 9 13 11 9 10 8 12 12 12 13 13 13 12 13 14 15 15 16 15 15 15 15 15 16 16 15 15 16 12 11 10 8
20 15 12 16 11 18 12 16 24 14 20 8 3 6 10 14 12 17 20 22 21 16 17 20 22 21 19 17 14 14 14 13 10 11 6 13 12 12 10 10 12 13 14 15 14 14 15 14 11 12 11 9 8 9 11 10 7 9 8 9 10 11 11 12 13 14 16 15 15 15 16 16 16 16 16 16 17 17 17 17 15 13 12 13 12 12
19 21 13 17 10 15 19 19 16 16 20 13 14 10 16 21 21 20 17 15 15 18 15 18 18 17 18 17 17 18 8 5 9 3 10 14 12 12 11 10 12 13 13 13 14 15 14 12 11 10 7 10 10 11 9 5 7 8 8 9 8 10 11 12 15 15 15 17 16 16 15 15 16 17 17 17 19 19 16 14 12 14 13 15 15 13
13 13 14 16 13 13 18 17 15 15 11 4 6 6 11 13 16 14 11 13 9 17 15 15 16 15 14 15 15 15 12 4 4 7 11 14 14 11 13 12 13 12 13 12 10 13 13 14 13 11 9 6 8 7 4 0 4 6 8 7 9 9 11 14 14 13 16 17 15 15 14 14 15 16 17 18 17 16 17 16 15 12 11 11 11 12
9 10 9 13 12 14 14 15 14 4 3 11 15 17 15 13 5 7 12 3 15 16 9 10 10 11 14 13 12 11 11 9 11 13 15 14 12 12 10 14 16 16 16 15 13 9 9 9 11 12 10 7 7 2 3 3 3 4 5 6 5 9 12 15 17 12 6 6 10 11 13 13 16 16 17 17 15 13 14 12 11 13 13 11 11 11
6 6 7 15 14 20 23 18 13 10 3 10 10 12 17 11 4 6 6 8 16 15 11 9 8 8 13 11 10 10 9 4 9 13 14 14 16 18 16 9 10 11 12 13 13 12 11 11 7 7 5 5 3 0 2 4 4 5 4 5 7 12 16 10 6 8 10 8 9 10 13 12 14 16 14 13 13 12 11 11 12 12 12 12 10 10
5 4 5 9 10 12 12 16 15 5 4 10 13 15 16 9 3 4 10 11 11 18 10 9 14 11 12 6 9 8 11 11 11 12 14 15 14 15 15 15 14 14 12 9 9 8 11 12 10 8 6 3 3 2 4 4 5 4 3 4 11 14 1 3 5 6 8 10 11 11 11 12 11 11 12 12 13 13 12 9 10 12 13 10 11 13
5 9 8 9 8 11 11 12 13 12 5 17 15 14 11 6 9 11 12 12 12 5 12 14 12 12 10 13 14 11 11 13 12 13 14 15 16 16 16 16 15 14 15 16 19 15 11 12 14 12 9 4 3 4 5 6 6 6 6 9 11 0 3 3 5 6 7 8 10 11 12 11 13 13 12 13 14 15 14 12 12 11 11 12 12 13
2 11 10 7 2 5 4 4 2 6 10 9 11 6 11 7 8 7 6 10 7 9 9 9 10 10 11 13 14 16 14 13 15 13 14 13 13 13 13 14 13 12 12 11 10 11 11 13 14 13 10 6 4 5 6 8 7 6 7 12 3 4 4 6 6 7 8 7 8 9 10 11 12 12 11 14 14 14 14 13 12 12 11 11 12 11
4 5 3 9 5 5 4 10 13 15 8 1 2 9 10 12 5 4 5 5 6 7 3 5 11 11 9 11 13 13 16 15 14 14 14 15 16 15 15 15 15 15 14 14 14 12 9 11 14 15 13 9 6 3 5 6 8 8 9 7 7 7 9 9 9 10 10 10 10 11 9 9 10 11 12 13 15 16 14 15 15 14 12 12 11 12
7 13 9 7 7 9 12 8 14 13 13 14 11 6 8 7 4 4 4 4 4 5 6 6 7 10 10 9 11 14 12 14 17 16 15 15 15 16 15 15 15 13 12 12 13 14 12 13 13 13 14 14 7 6 5 6 7 8 9 6 9 9 10 11 12 12 12 11 11 11 11 12 10 10 10 12 11 14 14 17 16 15 14 13 12 11
5 5 7 7 7 11 14 8 10 10 16 18 18 8 2 6 1 0 0 3 3 5 6 7 8 10 11 11 10 12 16 15 15 17 18 17 17 16 16 16 17 16 15 16 16 15 15 14 15 16 14 15 10 7 8 8 9 11 6 7 10 11 11 12 13 12 12 12 11 11 12 15 12 11 11 12 11 10 12 13 15 14 13 12 10 9
6 1 9 7 14 11 12 11 16 16 18 14 9 11 9 1 3 3 2 2 3 3 4 7 9 10 10 10 11 13 15 16 17 17 17 17 17 16 16 16 18 18 17 14 15 15 15 15 16 16 15 15 13 7 9 9 10 12 9 5 8 10 11 12 13 14 14 15 12 12 13 13 15 15 12 12 12 13 12 12 12 15 13 14 13 12
8 5 8 4 11 11 15 13 14 16 13 12 12 9 4 4 2 2 3 4 4 7 8 8 6 10 12 13 14 14 15 15 15 15 17 17 18 16 16 18 18 17 18 18 16 14 14 15 16 17 17 17 14 10 9 11 12 10 10 9 8 10 12 12 12 10 11 12 12 13 13 12 14 14 14 13 12 10 12 14 13 10 2 10 12 17
6 9 11 8 10 10 11 12 7 10 12 13 13 3 6 8 8 9 9 9 10 11 11 12 12 11 11 12 13 13 13 15 16 15 17 17 18 19 19 19 18 19 18 17 15 16 17 17 17 17 18 16 14 12 11 12 12 10 9 8 9 11 13 12 11 11 12 12 12 11 12 11 11 12 11 12 13 11 8 9 12 10 13 12 13 14
10 11 9 9 9 12 12 11 4 6 12 10 11 3 3 3 8 8 10 10 10 9 8 11 13 13 12 12 11 14 15 16 18 17 17 15 17 18 19 20 20 19 19 18 18 18 18 18 17 17 18 18 15 13 13 13 11 9 9 10 11 13 14 12 11 10 10 10 11 13 14 12 12 11 11 11 11 11 11 9 10 15 14 13 16 15
Wind_Direction
142 177 176 192 226 225 216 199 219 234 240 261 269 268 256 260 267 263 271 243 201 225 221 230 235 241 251 250 250 252 264 265 260 246 241 241 248 251 252 251 252 253 249 264 186 203 203 199 190 181 170 171 170 168 167 166 170 169 169 165 173 172 164 162 163 168 164 166 163 167 179 178 177 173 168 169 166 165 157 159 159 159 160 162 162 167
127 198 207 215 226 226 200 204 220 240 242 244 254 258 264 238 265 254 266 226 224 195 256 233 246 246 249 255 255 258 257 257 254 253 242 246 240 246 252 257 255 251 265 279 244 223 209 191 177 165 165 158 165 180 169 173 173 170 169 174 170 170 172 174 173 172 177 179 179 174 181 172 172 164 169 172 179 169 156 158 161 161 164 165 166 169
205 216 218 225 231 257 230 209 213 215 233 241 239 251 268 255 255 272 254 255 246 178 262 255 252 249 252 255 259 246 238 244 245 242 250 244 251 253 254 253 256 258 259 280 270 216 202 185 172 167 173 181 178 171 176 173 166 171 174 176 171 176 175 179 176 173 180 175 170 171 165 166 161 173 157 156 154 148 155 165 165 163 165 166 170 172
259 239 234 223 223 239 255 233 235 255 252 248 250 257 247 253 271 284 222 15 192 185 239 229 258 261 270 267 261 252 238 241 244 245 251 248 248 250 252 250 258 262 249 240 220 205 192 180 175 170 177 182 167 167 171 171 173 174 178 177 175 178 179 177 181 176 168 160 139 114 131 127 134 161 150 135 137 145 148 166 171 175 170 171 173 176
228 203 214 205 212 219 240 240 223 236 260 239 232 239 257 249 241 232 272 330 267 293 297 301 280 269 236 257 260 251 237 246 253 255 257 260 247 250 260 262 255 255 246 230 228 221 182 175 185 187 183 164 172 176 177 174 177 179 180 179 177 178 181 178 175 171 154 138 127 117 107 101 92 86 131 138 166 174 169 159 184 187 175 175 172 174
252 241 131 173 215 223 232 252 211 197 253 256 233 211 236 244 255 258 282 337 330 311 243 198 305 266 205 222 241 247 257 231 239 238 249 250 251 249 262 254 252 246 226 215 212 200 192 190 181 177 168 180 180 180 184 179 178 172 177 177 179 177 179 180 176 168 162 165 158 152 154 166 169 170 173 186 184 180 184 190 173 167 176 172 174 177
231 219 202 217 201 221 215 230 218 178 239 260 253 192 228 238 247 271 284 350 280 257 298 110 214 291 143 241 225 243 233 239 246 221 237 245 246 245 246 258 252 223 227 238 226 189 184 193 183 188 186 187 183 189 173 174 177 176 177 179 180 179 180 177 175 171 169 170 176 178 179 178 180 180 198 189 181 182 178 154 175 178 175 177 173 180
197 220 191 216 215 217 220 242 232 188 224 255 231 181 200 235 249 251 229 193 252 234 275 280 109 288 291 222 218 203 211 219 235 243 244 242 241 240 244 246 254 222 208 201 206 198 195 187 187 191 193 184 191 174 166 175 176 178 180 179 182 181 179 178 173 178 179 178 180 181 184 185 187 190 187 181 182 174 161 168 175 169 177 176 176 174
180 211 192 216 211 199 208 223 192 169 192 239 237 154 185 204 217 152 172 220 235 6 279 169 125 284 260 257 205 188 211 232 235 236 238 237 240 240 241 248 250 232 209 197 197 199 193 195 202 194 186 193 171 168 175 181 182 179 178 178 178 181 180 179 180 181 186 184 183 184 181 189 199 188 178 166 160 166 166 169 170 174 175 176 178 177
315 178 217 180 164 216 221 59 156 176 214 259 122 79 75 68 67 74 184 270 331 38 270 163 157 225 281 252 214 186 202 214 228 229 232 232 231 236 232 239 251 252 214 211 207 198 196 198 198 192 170 170 188 178 177 174 167 173 171 177 180 185 184 181 184 185 186 186 180 185 189 189 184 172 155 165 171 173 172 176 176 176 175 177 175 178
237 326 195 133 208 219 115 125 110 268 211 113 81 74 6 26 27 23 77 95 26 255 260 155 193 178 271 287 175 136 206 205 215 235 249 251 255 261 250 232 239 244 215 209 207 199 197 194 175 155 175 181 173 177 172 173 176 173 177 180 185 189 184 183 187 186 189 188 187 190 188 186 181 177 168 170 182 175 176 182 179 177 177 174 177 169
253 54 173 254 83 77 104 78 354 70 75 112 112 125 30 324 18 34 347 48 180 267 208 179 181 183 230 282 256 191 241 200 183 203 222 237 238 241 248 237 235 231 211 193 182 187 166 142 156 161 177 177 182 172 183 183 179 181 181 181 187 189 191 189 189 189 192 192 194 193 187 188 185 177 180 182 182 182 181 179 176 173 167 176 169 172
257 236 215 62 215 156 148 119 320 8 12 121 90 71 219 268 23 318 29 306 198 239 212 213 174 13 236 242 281 305 275 245 216 199 211 218 234 241 253 248 234 222 176 175 183 168 172 176 176 187 185 171 184 190 187 187 184 184 186 187 188 197 193 192 189 193 194 195 197 195 192 191 185 186 185 185 183 182 181 177 173 172 178 170 173 181
275 271 194 224 37 217 128 191 237 329 217 131 159 161 136 251 227 259 259 240 298 280 243 192 165 237 275 311 199 232 237 220 208 219 221 216 218 226 239 247 232 203 188 183 175 181 182 185 190 190 184 188 188 190 189 189 188 189 190 191 195 201 191 193 193 196 196 202 201 198 197 193 187 189 186 188 183 182 181 177 178 178 177 178 183 178
301 299 223 132 234 182 180 199 203 204 151 198 121 152 195 175 146 210 226 242 240 252 287 211 117 230 8 249 210 207 225 220 207 215 220 223 234 223 251 313 187 177 200 176 180 188 190 195 190 189 191 190 190 189 190 192 193 187 194 195 201 198 196 195 198 196 201 204 204 202 201 196 195 191 187 190 184 178 179 181 178 180 177 178 178 180
225 242 267 178 212 148 182 214 186 96 64 212 161 81 39 230 173 227 230 250 292 355 312 198 214 201 233 233 280 286 317 295 236 231 228 239 239 249 246 204 193 197 200 200 198 206 212 202 193 192 196 197 190 190 192 195 191 192 200 199 202 201 196 195 196 202 203 204 203 204 201 202 199 196 187 182 183 185 180 177 177 178 178 176 168 165
307 257 293 179 29 171 188 81 193 153 212 240 117 189 215 172 191 264 331 287 132 332 262 161 276 273 309 279 221 236 219 242 250 257 255 245 245 236 235 216 200 202 208 210 211 208 205 208 213 207 198 194 194 191 198 198 195 197 196 196 203 206 199 199 202 203 201 202 201 208 205 199 199 197 194 191 184 177 174 173 176 174 173 162 163 160
229 261 16 164 232 296 177 146 10 331 139 104 189 232 67 94 126 144 213 329 224 222 268 262 254 289 350 289 1 59 93 262 272 252 235 235 232 236 240 206 205 204 208 219 232 226 214 209 208 205 204 202 202 203 201 201 199 199 198 199 201 199 202 207 203 203 202 201 206 207 207 206 203 202 202 191 181 171 165 171 169 162 162 170 163 158
202 261 241 206 161 248 290 137 318 330 120 153 189 250 141 253 254 256 93 238 258 249 258 265 284 262 239 259 286 313 293 255 230 229 228 235 240 239 245 241 241 234 204 223 222 222 225 218 215 209 211 211 211 213 214 205 192 198 204 207 204 205 207 204 199 205 210 207 208 207 208 207 206 203 200 196 180 172 173 172 171 170 166 154 157 152
156 244 233 296 158 171 48 131 217 181 309 71 52 339 203 114 198 156 198 176 175 253 265 270 276 271 251 236 265 219 231 232 243 249 241 239 237 241 246 232 221 212 212 213 217 217 217 217 212 210 211 205 206 205 201 193 195 205 208 202 207 211 203 199 202 201 206 207 209 209 207 210 209 203 197 193 185 185 184 175 167 164 161 164 154 157
244 178 251 166 306 51 241 185 202 166 185 204 228 263 302 226 220 134 282 173 208 235 225 259 268 267 272 181 143 233 213 214 213 216 228 231 236 236 239 236 219 217 214 218 215 217 221 225 226 225 222 221 217 208 193 193 199 205 194 204 207 206 205 206 208 201 208 201 205 203 205 206 201 203 193 189 195 190 186 177 170 167 161 149 164 156
317 181 242 66 313 226 256 169 183 185 180 186 191 214 209 200 231 244 254 213 241 228 231 232 251 266 272 116 88 258 227 201 219 204 218 231 230 240 242 244 227 225 230 222 225 219 220 223 227 231 229 227 209 210 205 207 201 195 200 208 204 202 205 208 210 206 206 200 199 203 205 202 198 197 192 192 193 195 185 179 176 164 156 165 161 161
215 219 276 229 220 240 243 235 207 191 186 186 174 227 204 222 232 222 252 233 284 253 267 254 271 241 277 265 292 295 288 210 220 226 234 239 238 222 223 229 243 228 233 224 224 226 226 219 216 215 212 210 208 212 207 199 202 207 206 202 201 200 209 207 210 206 200 195 196 201 199 192 194 192 195 195 195 196 187 180 172 168 164 162 159 163
33 278 255 276 302 309 310 87 193 237 133 38 294 190 154 214 196 238 251 276 269 280 263 258 244 278 269 280 301 300 288 243 226 202 225 241 259 266 254 256 257 263 253 247 247 254 238 236 253 224 216 216 218 215 209 206 206 210 211 205 202 205 211 207 202 196 196 200 203 197 189 190 189 185 188 195 196 198 191 180 173 170 168 161 158 162
355 306 76 330 311 322 320 323 290 83 94 194 172 209 213 236 239 240 260 357 269 241 263 266 265 268 270 284 290 287 290 275 260 245 226 226 249 269 277 264 250 247 259 266 253 243 251 247 225 220 218 215 216 217 215 210 209 206 208 202 205 213 210 202 195 194 198 199 200 195 194 191 184 187 188 190 185 191 185 184 175 174 169 162 164 163
234 235 6 225 238 245 244 236 246 248 215 237 220 224 220 225 234 244 247 234 246 231 234 242 256 248 260 271 281 273 272 269 251 239 244 223 224 234 240 242 245 247 252 253 257 267 258 244 238 235 229 225 223 219 215 214 213 212 211 208 208 210 199 201 193 196 193 194 193 195 195 191 187 188 186 184 181 182 179 179 180 175 172 169 164 161
206 167 205 213 218 235 240 248 255 121 83 229 238 227 234 229 230 230 237 240 241 241 235 234 241 253 253 260 267 272 269 267 266 260 246 247 256 248 246 262 268 257 246 243 244 253 271 274 249 233 229 227 227 222 217 211 211 211 210 213 209 207 200 195 190 192 191 190 194 191 193 189 191 185 182 182 179 169 170 176 178 176 174 172 163 163
143 205 212 221 224 229 237 241 247 245 245 247 250 246 240 237 234 229 225 237 235 257 254 231 239 246 247 249 257 266 270 271 269 268 269 259 244 250 250 238 238 256 260 261 266 251 243 244 247 237 230 230 231 225 220 217 214 211 209 211 206 199 194 192 189 190 191 188 191 194 194 193 185 180 180 175 167 167 169 169 172 176 169 164 167 168
184 234 221 221 234 226 232 237 242 248 247 248 246 250 252 245 237 239 239 240 236 236 251 244 241 246 247 244 250 254 261 264 271 280 278 271 265 245 234 245 254 257 262 239 236 236 237 242 242 242 237 232 231 228 224 221 220 218 221 220 204 195 199 189 184 186 188 190 194 197 191 181 178 178 172 168 164 166 169 170 169 166 166 168 165 163
192 233 229 222 240 230 232 236 238 243 248 250 248 247 248 251 249 242 245 244 238 244 251 258 256 253 252 255 250 253 257 267 278 282 283 277 266 260 234 233 253 267 275 253 237 235 233 235 240 240 237 236 229 227 224 221 221 215 213 212 200 197 197 171 188 186 189 193 197 190 180 177 174 173 170 168 171 171 168 166 167 166 167 169 165 159
207 218 194 232 241 238 232 236 236 239 240 246 244 246 244 249 252 249 250 251 258 258 255 254 253 257 256 257 259 264 268 271 275 276 274 274 272 265 263 267 271 273 278 271 246 243 238 239 241 243 239 238 232 228 224 221 220 217 217 212 198 199 188 181 184 189 190 196 189 178 172 172 176 170 175 175 170 167 166 168 166 166 167 165 163 160
196 251 225 241 245 242 225 236 232 233 235 238 243 244 245 243 246 245 245 237 236 245 248 251 253 253 251 249 250 251 257 260 258 258 263 267 267 276 287 280 278 276 274 269 257 247 247 246 245 239 235 237 235 229 225 225 223 213 217 207 203 196 176 182 186 189 192 188 176 175 175 177 172 174 176 170 173 169 168 163 164 167 166 162 160 159
191 216 229 234 252 242 232 233 233 234 238 237 230 234 238 236 233 241 244 246 238 239 245 245 247 241 245 242 250 248 248 249 251 253 256 260 272 284 280 275 274 277 272 259 260 256 242 240 236 232 237 239 239 234 227 223 220 216 217 206 206 163 175 186 188 188 187 182 177 179 178 174 174 175 172 176 170 166 163 166 167 166 164 168 162 152
217 229 244 232 257 260 239 246 239 237 228 225 209 221 224 235 235 239 240 240 240 229 235 230 244 246 250 246 241 244 245 245 245 250 255 268 280 282 286 283 278 275 271 262 262 264 256 248 238 232 233 236 240 237 234 224 219 224 217 201 160 172 183 181 187 185 185 179 182 180 178 174 173 176 176 170 166 165 168 169 174 169 163 154 156 162
238 234 244 223 254 261 246 263 255 232 249 192 207 216 220 231 236 240 243 241 245 244 247 251 248 247 249 251 249 248 249 257 261 268 277 281 273 277 286 287 287 289 288 290 279 264 261 248 234 241 242 242 241 240 236 238 226 227 178 165 177 182 176 185 183 184 182 183 183 177 177 177 176 176 172 170 168 169 172 173 166 164 165 164 167 166
241 233 240 230 236 272 235 228 255 247 80 335 227 212 221 236 238 250 259 256 258 253 249 250 253 256 256 257 258 260 262 261 267 269 275 295 338 342 338 327 323 322 318 310 297 289 274 249 240 235 239 240 239 235 218 224 215 195 200 175 179 179 182 180 182 186 180 185 185 183 181 176 177 174 171 170 171 172 174 173 171 168 164 160 160 159
227 235 226 258 219 255 243 244 251 276 274 214 174 200 188 215 209 219 245 247 246 282 297 285 279 277 281 289 298 298 286 282 280 287 21 17 6 9 6 345 340 336 335 338 332 314 298 290 277 264 261 261 240 236 234 227 189 188 170 173 183 177 179 177 185 188 188 190 185 184 181 178 176 175 173 173 173 177 176 173 171 168 162 160 164 163
214 223 215 237 226 227 257 260 261 258 255 257 233 222 207 212 210 218 225 254 51 4 20 29 21 18 13 4 360 333 304 298 277 265 12 352 8 345 343 343 341 338 341 338 344 345 334 318 310 302 275 260 258 245 246 202 174 168 173 183 174 171 183 185 196 193 189 192 187 184 179 179 176 175 176 175 181 180 177 171 166 168 168 166 165 170
250 249 254 241 255 233 237 240 244 252 259 357 282 251 247 241 225 230 242 246 28 5 355 25 19 16 16 5 0 2 23 16 348 348 343 347 335 352 336 332 334 329 329 331 339 338 330 330 322 316 330 323 313 331 359 58 153 157 183 180 179 181 183 200 203 193 195 195 184 178 176 176 177 178 178 182 182 176 173 173 172 163 163 168 166 167
296 256 244 245 250 262 270 263 259 258 316 342 339 340 330 311 322 54 254 183 346 344 351 19 15 10 10 359 2 18 21 359 334 330 328 322 323 320 326 320 322 326 325 323 327 327 319 324 343 348 351 339 307 305 84 92 134 181 184 187 168 185 202 208 207 200 188 168 173 176 174 177 179 180 180 181 175 174 172 162 158 167 168 168 166 162
339 324 265 264 251 247 245 254 258 258 98 17 343 333 345 314 63 203 230 349 322 318 333 358 9 11 1 344 7 349 334 316 297 298 306 309 312 313 312 305 300 304 305 312 312 319 324 322 327 318 304 296 278 261 100 112 131 187 189 180 189 209 216 205 160 159 172 168 169 177 180 179 182 179 178 173 169 163 160 166 167 163 168 163 162 158
308 275 266 281 272 273 273 266 252 269 93 12 1 21 348 340 290 10 325 291 292 310 321 345 350 349 335 324 327 318 297 295 289 286 295 300 297 295 298 304 310 310 309 297 291 305 313 312 309 309 302 266 222 170 153 151 160 178 186 190 217 229 35 112 161 151 157 169 175 174 177 178 176 171 167 163 157 162 165 165 164 168 166 162 160 162
275 301 294 302 303 297 280 285 271 254 29 26 353 358 52 54 300 298 312 308 301 333 340 339 334 321 322 318 314 301 295 297 297 299 297 300 305 306 310 314 316 315 316 323 323 323 323 312 306 302 291 267 188 169 162 162 179 178 177 215 235 125 143 130 140 156 162 167 173 177 176 173 170 169 168 167 166 162 162 160 161 167 168 163 162 159
285 279 275 258 276 279 298 280 269 24 331 0 29 339 336 319 280 287 285 311 336 342 324 309 314 316 318 313 313 314 312 310 308 310 309 306 307 309 308 310 309 309 308 304 299 303 315 307 301 298 294 276 212 184 174 171 184 189 197 233 183 154 138 149 150 151 162 168 175 172 174 172 170 168 169 167 164 164 158 161 161 162 169 169 163 160
188 189 267 285 319 311 272 296 301 308 333 292 26 316 298 308 314 242 235 229 294 297 249 298 309 318 328 320 315 316 315 320 318 321 322 323 320 320 320 319 319 317 315 315 316 318 313 306 308 309 307 297 264 240 196 192 189 194 212 224 162 172 167 163 164 163 170 171 171 174 171 166 171 173 172 172 166 165 164 161 161 162 172 168 170 165
328 310 313 313 284 285 269 260 291 305 316 312 304 292 302 297 211 201 223 275 285 309 319 309 311 320 323 333 324 315 311 315 318 320 318 315 312 311 312 311 311 312 311 313 315 318 317 313 309 303 298 295 271 250 235 222 213 207 221 163 170 176 172 167 168 174 178 174 172 172 165 166 170 172 177 177 180 176 170 165 166 166 167 172 171 168
300 306 295 276 306 311 284 313 288 302 306 307 303 310 211 206 205 232 279 282 325 344 346 336 323 323 321 317 314 308 310 312 313 311 310 310 309 308 309 310 307 307 309 308 306 309 309 308 304 302 297 288 276 239 245 231 229 234 239 176 176 172 172 174 178 177 172 173 173 167 170 174 174 172 175 179 179 181 177 174 170 167 165 169 162 164
279 357 314 284 283 267 282 303 307 301 283 276 305 318 319 336 34 51 34 16 338 333 332 319 322 317 312 311 310 309 308 309 308 309 310 309 308 310 310 309 309 308 305 302 302 303 300 297 296 294 293 288 282 254 243 238 238 234 235 204 175 173 172 180 182 181 181 177 173 176 177 180 175 172 176 183 182 176 178 186 183 176 175 172 169 154
265 319 263 268 278 290 288 283 270 273 286 305 310 314 7 3 354 47 4 332 323 329 325 323 316 310 316 311 316 315 307 303 305 307 308 309 308 309 309 308 307 304 304 306 304 299 295 295 292 289 285 282 281 269 245 242 240 237 226 207 181 172 178 189 188 185 177 175 172 178 182 180 179 184 179 177 181 195 185 177 185 185 41 175 170 169
280 260 263 279 284 272 274 286 302 307 302 304 304 340 33 352 2 343 341 343 343 342 337 330 324 319 315 314 314 314 311 308 310 315 311 308 306 309 310 309 308 309 307 305 307 305 298 291 287 286 282 277 277 270 255 250 243 231 220 198 182 177 185 186 181 184 187 182 183 179 175 180 181 183 179 177 176 173 181 192 182 173 173 177 183 178
235 253 262 258 256 269 268 269 272 265 277 266 286 43 65 26 349 345 330 334 332 330 330 329 319 317 312 312 317 313 310 311 309 311 307 304 306 308 308 310 310 309 305 306 306 301 296 293 291 287 282 280 277 270 264 258 251 231 204 193 187 185 191 178 182 191 189 183 190 185 179 177 176 180 181 177 172 169 168 165 180 180 180 174 169 171